| time (UTC) | temp C | wind direction | speed KPH | gust KPH | rain 1hr cm | rain 24hr cm | rain mn cm | humidity % | barometer mb |
| 20260502151305 | 18 | 290 | 0.0 | 0.0 | 0.00 | 0.00 | 0.00 | 72 | 1011.3 |
| 20260502122805 | 20 | 186 | 0.0 | 0.0 | 0.00 | 0.00 | 0.00 | 59 | 1010.6 |
| 20260502121306 | 21 | 186 | 0.0 | 0.0 | 0.00 | 0.00 | 0.00 | 60 | 1010.4 |
| 20260502115805 | 21 | 186 | 0.0 | 0.0 | 0.00 | 0.00 | 0.00 | 61 | 1010.1 |
| 20260502114305 | 21 | 186 | 0.0 | 0.0 | 0.00 | 0.00 | 0.00 | 55 | 1010.0 |
| 20260502112806 | 21 | 186 | 0.0 | 0.0 | 0.00 | 0.00 | 0.00 | 53 | 1009.7 |
| 20260502111304 | 22 | 186 | 0.0 | 0.0 | 0.00 | 0.00 | 0.00 | 54 | 1009.5 |
| 20260502105804 | 22 | 186 | 0.0 | 0.0 | 0.00 | 0.00 | 0.00 | 53 | 1009.2 |
| 20260502104305 | 22 | 186 | 0.0 | 0.0 | 0.00 | 0.00 | 0.00 | 52 | 1009.0 |
| 20260502102805 | 22 | 186 | 0.0 | 0.0 | 0.00 | 0.00 | 0.00 | 53 | 1008.8 |
| 20260502101305 | 23 | 186 | 0.0 | 0.0 | 0.00 | 0.00 | 0.00 | 50 | 1008.7 |
| 20260502091304 | 23 | 177 | 0.0 | 3.2 | 0.00 | 0.00 | 0.00 | 46 | 1007.9 |
| 20260502071305 | 26 | 195 | 3.2 | 4.8 | 0.00 | 0.00 | 0.00 | 45 | 1006.3 |
| 20260502065805 | 26 | 240 | 1.6 | 3.2 | 0.00 | 0.00 | 0.00 | 43 | 1006.3 |
| 20260502064304 | 26 | 197 | 4.8 | 11.3 | 0.00 | 0.03 | 0.00 | 46 | 1006.1 |
| 20260502062804 | 27 | 194 | 9.7 | 9.7 | 0.00 | 0.03 | 0.00 | 45 | 1005.9 |
| 20260502061305 | 27 | 192 | 8.0 | 9.7 | 0.00 | 0.03 | 0.00 | 44 | 1005.6 |
| 20260502055806 | 28 | 135 | 1.6 | 3.2 | 0.00 | 0.03 | 0.00 | 44 | 1005.4 |
| 20260502054304 | 28 | 235 | 3.2 | 4.8 | 0.00 | 0.03 | 0.00 | 42 | 1005.3 |
| 20260502052805 | 28 | 212 | 1.6 | 3.2 | 0.00 | 0.03 | 0.00 | 34 | 1005.2 |
| 20260502051304 | 28 | 24 | 4.8 | 11.3 | 0.00 | 0.03 | 0.00 | 36 | 1005.0 |
| 20260502045804 | 27 | 3 | 4.8 | 4.8 | 0.00 | 0.03 | 0.00 | 34 | 1005.0 |
| 20260502044305 | 27 | 27 | 11.3 | 16.1 | 0.00 | 0.03 | 0.00 | 34 | 1004.9 |
| 20260502042805 | 27 | 286 | 3.2 | 8.0 | 0.00 | 0.03 | 0.00 | 41 | 1004.7 |
| 20260502041304 | 27 | 31 | 9.7 | 14.5 | 0.00 | 0.03 | 0.00 | 35 | 1004.6 |
| 20260502035804 | 27 | 22 | 9.7 | 16.1 | 0.00 | 0.03 | 0.00 | 35 | 1004.6 |
| 20260502034305 | 27 | 358 | 8.0 | 9.7 | 0.00 | 0.05 | 0.00 | 34 | 1004.5 |
| 20260502032805 | 28 | 263 | 8.0 | 11.3 | 0.00 | 0.05 | 0.00 | 34 | 1004.2 |
| 20260502031304 | 27 | 339 | 3.2 | 8.0 | 0.00 | 0.05 | 0.00 | 39 | 1004.0 |
| 20260502025804 | 27 | 263 | 9.7 | 12.9 | 0.00 | 0.05 | 0.00 | 45 | 1003.9 |
| 20260502024305 | 26 | 248 | 3.2 | 9.7 | 0.00 | 0.10 | 0.00 | 46 | 1003.8 |
| 20260502022805 | 26 | 215 | 3.2 | 16.1 | 0.00 | 0.20 | 0.00 | 45 | 1003.7 |
| 20260502021304 | 26 | 222 | 1.6 | 3.2 | 0.00 | 0.20 | 0.00 | 45 | 1003.7 |
| 20260502015804 | 26 | 210 | 3.2 | 9.7 | 0.00 | 0.23 | 0.00 | 48 | 1003.5 |
| 20260502014304 | 25 | 195 | 3.2 | 11.3 | 0.00 | 0.28 | 0.00 | 48 | 1003.3 |
| 20260502012805 | 25 | 187 | 1.6 | 11.3 | 0.00 | 0.33 | 0.00 | 49 | 1003.3 |
| 20260502011306 | 25 | 196 | 8.0 | 11.3 | 0.00 | 0.43 | 0.00 | 50 | 1003.4 |
| 20260502005804 | 24 | 205 | 3.2 | 3.2 | 0.00 | 0.43 | 0.00 | 55 | 1003.4 |
| 20260502004304 | 23 | 180 | 3.2 | 3.2 | 0.00 | 0.46 | 0.00 | 55 | 1003.2 |
| 20260502002804 | 22 | 199 | 9.7 | 12.9 | 0.00 | 0.51 | 0.00 | 58 | 1003.1 |
| 20260502001305 | 22 | 199 | 3.2 | 16.1 | 0.00 | 0.79 | 0.00 | 57 | 1003.0 |
| 20260501235805 | 21 | 220 | 8.0 | 8.0 | 0.00 | 1.09 | 0.00 | 59 | 1003.2 |
| 20260501234306 | 21 | 233 | 8.0 | 12.9 | 0.00 | 1.35 | 0.00 | 61 | 1003.1 |
| 20260501232804 | 20 | 197 | 4.8 | 12.9 | 0.00 | 1.55 | 0.00 | 65 | 1002.7 |
| 20260501231305 | 20 | 223 | 4.8 | 8.0 | 0.00 | 1.80 | 0.00 | 65 | 1002.4 |
| 20260501225805 | 19 | 222 | 1.6 | 3.2 | 0.00 | 2.03 | 0.00 | 63 | 1002.2 |
| 20260501224305 | 18 | 179 | 3.2 | 4.8 | 0.00 | 2.11 | 0.00 | 65 | 1001.9 |
| 20260501222806 | 17 | 235 | 0.0 | 3.2 | 0.00 | 2.21 | 0.00 | 65 | 1001.7 |
| 20260501221304 | 17 | 320 | 0.0 | 0.0 | 0.00 | 2.36 | 0.00 | 66 | 1001.6 |
| 20260501215805 | 17 | 327 | 0.0 | 0.0 | 0.00 | 2.49 | 0.00 | 65 | 1001.2 |
| 20260501214304 | 17 | 13 | 4.8 | 9.7 | 0.00 | 2.54 | 0.00 | 65 | 1000.8 |
| 20260501212804 | 17 | 10 | 3.2 | 4.8 | 0.00 | 2.69 | 0.00 | 65 | 1000.4 |
| 20260501211305 | 17 | 7 | 9.7 | 16.1 | 0.00 | 2.84 | 0.00 | 65 | 1000.2 |
| 20260501205806 | 17 | 27 | 11.3 | 20.9 | 0.00 | 2.87 | 0.00 | 64 | 999.9 |
| 20260501204304 | 17 | 18 | 4.8 | 8.0 | 0.00 | 2.90 | 0.00 | 64 | 999.7 |
| 20260501202805 | 17 | 336 | 4.8 | 8.0 | 0.00 | 2.90 | 0.00 | 66 | 999.2 |
| 20260501201305 | 16 | 353 | 3.2 | 4.8 | 0.00 | 2.90 | 0.00 | 73 | 999.1 |
| 20260501195806 | 14 | 275 | 0.0 | 1.6 | 0.00 | 2.92 | 0.00 | 82 | 998.8 |
| 20260501194304 | 14 | 260 | 1.6 | 3.2 | 0.00 | 2.97 | 0.00 | 83 | 998.6 |
| 20260501192805 | 14 | 271 | 1.6 | 3.2 | 0.00 | 3.02 | 0.00 | 81 | 998.2 |
| 20260501191305 | 14 | 223 | 1.6 | 3.2 | 0.00 | 3.12 | 0.00 | 81 | 997.9 |
| 20260501185805 | 15 | 216 | 0.0 | 0.0 | 0.00 | 3.15 | 0.00 | 80 | 997.4 |
| 20260501184305 | 15 | 255 | 1.6 | 4.8 | 0.00 | 3.17 | 0.00 | 80 | 996.7 |
| 20260501182806 | 15 | 250 | 3.2 | 8.0 | 0.00 | 3.25 | 0.00 | 80 | 996.4 |
| 20260501181304 | 15 | 205 | 8.0 | 14.5 | 0.00 | 3.28 | 0.00 | 79 | 995.7 |
| 20260501175805 | 15 | 231 | 4.8 | 11.3 | 0.00 | 3.30 | 0.00 | 79 | 995.4 |
| 20260501174306 | 15 | 203 | 1.6 | 11.3 | 0.00 | 3.30 | 0.00 | 78 | 995.4 |
| 20260501172804 | 15 | 207 | 4.8 | 12.9 | 0.00 | 3.30 | 0.00 | 78 | 995.1 |
| 20260501171842 | 15 | 242 | 4.8 | 19.3 | 0.00 | 3.30 | 0.00 | 78 | 994.9 |
| 20260501171305 | 15 | 229 | 8.0 | 12.9 | 0.00 | 3.33 | 0.00 | 77 | 994.7 |
| 20260501165805 | 15 | 202 | 4.8 | 11.3 | 0.00 | 3.33 | 0.00 | 77 | 994.6 |
| 20260501164304 | 15 | 243 | 4.8 | 12.9 | 0.00 | 3.35 | 0.00 | 78 | 994.7 |
| 20260501162805 | 15 | 215 | 3.2 | 8.0 | 0.00 | 3.38 | 0.00 | 79 | 994.6 |
| 20260501161846 | 15 | 225 | 8.0 | 9.7 | 0.00 | 3.38 | 0.00 | 81 | 994.4 |
| 20260501161305 | 15 | 210 | 4.8 | 19.3 | 0.00 | 3.38 | 0.00 | 82 | 994.5 |